Wind_Speed
46 43 42 42 40 37 36 35 34 31 28 29 32 32 31 28 26 26 27 30 32 33 34 34 32 31 32 33 32 32 33 34 34 35 35 37 38 39 41 41 41 40 38 36 34 33 33 33 32 31 31 31 31 31 31 31 30 30 30 31 31 28 26 26 27 27 28 28 28 26 24 25 23 20 22 26 23 18 16 16 17 21 25 28 31 32 32
48 45 43 42 41 38 37 36 34 32 29 28 32 33 31 28 26 26 27 30 31 31 31 30 30 31 33 34 34 33 33 34 34 35 36 37 38 39 41 42 41 39 37 35 35 35 35 34 32 32 32 31 30 32 33 31 31 31 32 32 30 27 27 28 28 29 29 29 27 25 25 25 24 24 27 27 22 20 22 22 22 24 27 29 32 34 34
48 47 45 44 42 40 38 36 35 32 29 28 31 33 31 28 27 27 28 29 29 28 28 28 29 33 36 37 37 37 36 35 35 37 39 39 40 40 42 41 39 37 36 35 35 34 34 34 33 32 31 31 31 32 33 32 33 34 33 31 29 29 29 29 29 29 28 26 24 23 24 27 27 28 29 27 24 26 29 28 27 27 30 31 33 35 37
49 49 49 47 44 41 38 36 35 33 30 28 31 34 32 29 28 27 28 28 27 27 28 28 31 35 38 38 39 40 40 38 38 40 41 41 41 42 42 40 38 38 36 35 34 34 34 35 33 31 32 32 31 32 33 33 33 33 32 30 30 30 29 28 27 27 24 22 22 23 26 29 30 30 29 27 26 27 27 26 25 27 31 32 33 35 39
51 52 52 50 46 42 39 37 35 34 31 29 31 35 33 31 30 29 28 27 27 27 28 28 32 36 37 39 40 42 42 42 42 41 40 41 41 42 41 39 38 37 34 33 32 32 33 34 32 31 31 30 30 31 33 32 31 31 32 31 30 28 27 26 25 24 24 25 26 27 29 30 30 29 28 28 27 25 23 23 25 28 31 32 33 36 39
52 53 54 53 48 43 39 37 35 34 32 29 31 35 35 32 32 31 28 28 28 28 27 27 32 35 36 38 40 41 43 44 44 42 40 41 41 42 41 39 37 36 35 34 34 32 33 33 31 30 30 31 31 30 31 32 32 32 32 29 27 27 27 27 26 26 27 27 27 29 29 30 30 29 28 29 28 25 23 25 28 30 31 32 34 36 38
53 54 55 55 51 45 41 38 36 34 33 30 30 35 37 34 34 32 29 30 30 29 28 28 32 35 36 37 39 41 43 42 41 42 42 42 42 42 40 37 36 37 38 37 35 33 32 32 31 32 32 31 29 28 31 33 33 32 30 28 28 29 29 28 27 27 26 25 26 29 30 31 31 30 29 29 28 25 26 29 31 31 31 31 33 36 37
54 55 56 56 53 47 42 39 36 34 34 32 31 35 38 36 36 34 31 31 32 31 30 30 32 35 36 37 39 41 41 40 41 43 44 44 43 42 39 37 37 38 38 36 33 30 30 31 32 32 30 28 29 30 33 34 34 32 30 30 30 30 28 26 24 25 26 27 29 32 33 32 32 30 29 29 29 28 29 31 32 31 30 30 33 35 36
55 56 56 55 54 49 42 39 37 34 33 33 31 35 40 38 37 36 33 32 34 34 33 33 33 33 35 38 41 41 40 40 42 44 44 44 44 41 38 38 39 39 37 34 31 31 32 33 32 29 28 30 31 32 33 33 32 31 30 30 30 30 28 26 26 27 29 31 33 34 34 33 32 31 30 30 31 30 29 31 32 32 31 31 33 35 36
57 57 57 56 54 50 43 39 38 35 33 33 32 34 41 40 38 38 35 34 37 36 35 35 34 32 33 37 41 41 40 40 42 44 44 43 43 40 38 39 39 37 34 31 31 34 35 33 31 29 30 32 32 31 31 31 31 32 31 31 31 31 29 28 28 29 30 32 33 33 32 31 31 31 31 31 32 30 28 29 31 32 32 33 34 35 36
56 57 57 55 51 48 43 40 39 36 33 32 32 34 41 42 40 39 37 36 38 38 36 36 35 32 32 36 40 39 39 41 43 43 43 43 41 39 38 38 37 35 32 29 31 35 35 33 31 30 31 32 31 31 31 31 33 33 32 31 32 33 30 28 27 27 28 31 33 33 31 29 29 31 32 31 30 29 28 28 29 30 32 32 33 35 36
54 54 55 53 49 46 43 40 39 37 34 33 32 34 41 43 42 41 39 38 39 39 38 37 35 33 33 36 39 39 40 42 43 42 42 42 40 38 38 37 36 34 32 31 32 34 33 33 33 31 30 30 30 31 31 31 32 31 30 31 32 32 29 27 29 30 31 33 35 34 31 29 29 31 32 31 30 30 29 28 28 29 30 30 31 33 36
53 52 52 51 47 45 43 41 40 38 35 33 32 34 41 44 43 42 41 40 41 41 39 38 36 34 35 38 40 41 42 43 42 42 42 42 41 39 37 36 34 33 34 34 34 33 32 32 32 30 29 30 31 32 31 31 32 32 30 30 31 30 27 27 31 34 34 34 34 31 28 28 30 32 32 32 32 31 30 28 27 28 29 29 30 32 36
53 51 50 48 46 45 43 42 40 38 36 34 32 34 40 45 45 44 43 42 42 43 40 38 37 36 37 40 42 43 44 44 43 43 43 43 41 39 37 34 32 31 32 33 32 30 29 30 31 30 30 31 33 33 32 31 32 31 29 29 30 30 29 29 32 34 32 32 31 28 28 29 29 31 31 31 30 31 29 27 27 26 26 28 31 33 35
52 50 48 46 45 44 44 42 41 39 37 35 33 33 40 46 46 45 45 44 44 44 41 39 39 38 38 40 43 44 45 45 46 45 43 41 40 38 36 34 31 28 29 30 30 29 28 28 30 31 31 31 30 30 30 30 29 29 29 30 30 30 29 30 32 32 30 29 28 28 29 29 28 29 30 29 29 29 28 26 26 25 25 27 30 33 34
53 51 49 47 46 45 45 44 42 40 38 36 34 33 39 46 47 46 47 46 46 46 43 41 42 41 39 41 43 45 47 48 47 45 42 40 38 37 36 35 31 26 24 24 25 26 27 29 30 30 30 28 27 28 29 29 29 29 29 29 30 31 31 31 31 31 30 28 28 29 30 28 28 29 30 30 30 29 28 27 26 25 26 28 31 33 34
55 53 51 50 48 46 46 46 44 42 39 37 34 34 38 46 49 48 49 48 48 47 45 43 44 44 41 41 43 46 50 50 49 47 44 41 40 39 37 34 28 22 19 19 21 26 29 30 28 27 27 28 28 29 28 28 28 29 29 28 29 31 32 32 31 30 31 30 29 30 30 29 30 31 32 32 32 30 29 28 27 27 28 29 30 33 34
58 56 54 52 50 48 48 47 46 44 41 38 35 34 38 46 51 50 51 51 49 49 47 46 46 46 44 44 46 49 52 52 51 50 47 45 44 42 37 32 28 24 22 24 28 34 36 33 29 27 28 30 32 31 29 28 28 28 28 29 29 30 30 31 30 30 30 30 30 31 32 32 33 34 34 33 31 29 29 28 29 30 31 30 31 33 34
60 58 56 54 51 50 49 49 47 45 42 39 36 35 37 46 52 52 52 52 51 50 49 47 48 50 48 46 48 52 53 53 53 52 51 49 49 46 41 38 37 34 33 35 38 42 42 37 32 30 30 33 35 34 32 30 29 28 29 29 30 30 30 30 29 29 29 30 30 31 32 33 33 34 33 31 29 28 30 30 31 32 32 32 33 33 33
62 60 58 56 53 52 51 50 48 47 44 41 38 36 37 45 53 54 53 54 53 52 51 50 51 54 52 48 49 52 54 53 53 54 54 52 50 48 46 45 45 43 43 45 46 47 45 41 36 32 30 32 34 35 33 31 29 28 28 29 29 30 30 30 30 30 31 31 32 32 32 33 34 34 33 31 29 29 31 33 33 33 33 33 33 34 34
64 62 60 58 56 54 53 52 50 48 46 43 39 37 38 45 53 55 55 56 56 54 53 52 53 55 55 51 50 52 54 54 54 55 55 52 48 46 47 48 50 49 48 50 52 50 47 43 39 34 30 30 32 33 34 33 31 30 30 30 30 30 30 31 31 31 31 32 32 33 33 34 34 33 32 31 31 32 33 34 34 34 34 32 31 33 34
67 65 63 61 59 57 56 54 52 50 48 45 42 39 40 45 53 57 57 58 57 55 55 55 54 56 57 53 50 50 53 55 55 56 56 53 49 48 50 52 53 53 52 53 54 53 49 45 41 36 32 30 30 32 33 33 33 32 32 31 30 30 30 30 31 30 30 31 32 32 33 33 34 33 33 32 32 33 34 34 35 34 32 31 30 31 32
70 68 66 63 61 60 58 57 55 53 50 48 45 43 42 46 53 59 59 59 59 58 56 56 56 56 57 56 52 51 53 56 58 59 58 56 53 52 54 55 54 53 54 55 55 52 48 44 40 36 34 32 31 32 33 34 34 33 32 31 31 30 30 30 29 29 29 30 31 32 32 32 33 34 33 32 32 33 35 36 35 33 31 30 30 30 31
74 72 69 66 63 62 61 59 58 56 54 52 49 46 45 47 54 60 61 60 61 59 58 58 57 55 57 58 57 55 55 58 61 62 60 59 56 54 55 57 55 53 54 55 53 49 45 41 39 38 36 34 34 34 35 35 35 35 33 32 31 31 30 29 29 29 30 31 31 31 31 31 32 33 32 32 33 34 36 37 36 32 30 30 32 32 33
76 75 72 69 66 64 63 62 60 59 57 55 52 49 47 49 55 61 62 62 62 61 59 58 57 54 56 61 62 60 58 60 63 65 63 62 59 56 56 58 57 56 56 54 51 48 44 40 40 40 39 38 38 37 37 37 36 36 35 33 32 32 31 29 29 30 32 32 32 32 31 30 31 31 31 31 33 34 35 36 34 31 30 31 32 34 35
73 74 73 71 68 66 65 64 62 61 59 56 53 51 50 51 57 62 64 63 63 62 60 59 58 56 57 61 64 62 59 60 63 65 64 62 60 58 59 61 61 59 58 55 51 49 46 43 43 44 43 42 41 40 39 38 37 37 36 34 33 33 32 30 31 32 33 33 33 32 31 30 30 30 31 32 32 33 33 34 34 33 33 34 34 35 35
68 71 72 71 69 67 65 64 62 60 58 56 54 53 52 54 58 63 65 64 64 64 62 60 59 58 58 60 62 63 61 60 62 64 62 60 58 57 59 62 63 61 59 57 55 53 51 48 47 48 48 47 44 42 41 39 38 38 36 33 33 34 33 33 34 34 33 32 33 32 32 30 30 31 32 33 33 34 34 35 35 36 36 35 35 36 36
66 67 68 69 69 67 66 65 62 60 58 56 55 55 54 55 59 64 65 65 65 65 64 62 60 59 59 59 60 63 64 63 63 65 64 62 59 57 58 61 62 63 62 60 58 57 56 52 50 50 51 50 48 45 42 40 39 38 35 33 34 35 34 35 36 35 33 33 34 34 33 32 32 33 34 34 35 36 36 36 36 36 35 35 36 37 37
66 65 65 66 67 67 67 66 63 61 59 58 57 57 56 56 60 64 66 67 67 67 66 64 61 60 60 59 58 62 65 66 65 65 66 64 62 61 61 61 62 63 64 63 60 58 56 54 51 51 52 51 49 45 42 41 41 39 36 34 36 36 35 36 36 35 33 34 35 34 33 33 33 33 34 34 35 36 37 38 38 36 35 35 36 38 39
67 64 62 63 65 66 67 66 64 62 60 59 59 58 58 58 61 65 68 68 68 68 67 65 62 61 61 59 59 61 64 66 65 64 64 64 63 63 63 62 62 63 64 62 60 58 56 54 51 50 52 51 49 45 43 41 41 40 37 36 36 36 35 35 36 36 35 34 34 34 34 33 33 34 34 34 35 36 37 37 37 36 36 37 38 40 41
66 64 62 61 62 64 66 65 64 62 61 61 61 60 60 60 63 67 69 69 69 68 67 66 64 63 62 61 60 61 62 63 63 63 63 63 62 62 62 62 63 63 63 62 60 58 57 55 51 51 53 52 49 47 46 44 43 42 40 39 38 37 37 37 37 38 38 36 34 34 34 34 34 35 35 36 36 37 37 37 36 36 37 38 40 42 43
66 65 63 61 61 63 64 64 63 63 63 63 63 63 62 62 64 67 69 70 70 69 69 67 66 64 63 62 60 60 61 62 62 63 63 63 62 62 62 62 61 61 62 61 60 60 59 57 55 54 55 54 53 52 50 49 48 46 45 44 43 42 42 42 41 41 40 38 35 34 35 36 37 36 37 38 39 39 39 38 37 38 39 41 43 44 44
66 66 64 63 62 62 63 64 64 63 64 65 65 65 64 63 64 68 70 70 70 70 69 68 67 66 64 63 61 61 61 61 62 63 64 64 63 63 63 62 61 60 59 58 58 58 58 58 57 56 56 56 57 56 55 54 54 51 50 49 48 46 46 46 45 44 43 40 38 37 37 38 39 38 39 41 41 40 40 40 39 40 41 43 44 45 46
66 67 66 65 63 63 63 64 64 64 66 66 66 65 64 64 65 69 71 71 71 71 70 69 68 67 65 64 63 62 61 60 60 60 62 62 63 64 64 64 62 61 59 57 55 54 54 55 55 56 56 57 58 58 58 59 59 57 55 53 51 49 49 49 47 45 45 43 42 41 41 41 41 41 41 42 42 42 41 40 41 42 44 45 45 46 48
65 67 68 67 65 64 63 63 64 66 67 68 67 66 65 65 67 69 71 72 71 71 70 70 69 68 66 65 64 62 60 59 58 59 60 60 61 62 63 63 63 62 60 59 57 55 54 54 54 55 55 55 56 58 60 61 60 58 57 56 54 52 51 50 48 46 45 45 45 45 45 44 43 42 42 42 42 42 42 41 43 45 47 47 47 47 49
64 68 69 69 67 66 64 64 65 67 69 68 67 67 67 67 68 70 71 72 72 72 72 71 70 68 67 65 64 63 61 59 58 58 58 57 57 58 59 60 60 60 60 59 57 55 54 55 55 55 55 54 55 56 58 59 59 57 56 57 58 56 53 51 48 46 44 45 47 48 47 45 44 44 43 42 42 43 43 43 43 46 47 48 48 48 50
63 67 69 69 69 67 65 65 66 68 69 68 68 67 68 68 68 70 71 72 73 73 72 71 70 69 68 66 65 64 62 60 59 57 56 54 55 55 55 56 56 56 57 56 54 53 53 54 54 54 54 54 54 55 57 58 57 56 57 58 58 56 53 51 49 47 45 46 48 49 48 47 46 45 44 43 43 44 45 44 44 45 46 47 48 50 51
62 66 69 69 69 68 66 66 66 68 69 69 68 68 68 69 69 70 72 72 72 72 72 71 71 70 68 66 65 64 63 61 59 57 55 54 53 53 52 52 52 52 52 51 50 50 51 52 51 51 52 52 53 55 57 57 56 55 56 57 57 56 54 51 49 48 47 48 49 50 49 48 47 46 45 45 45 45 45 45 44 44 44 46 48 50 52
60 64 67 69 69 68 67 67 67 68 69 69 69 69 70 70 69 70 71 72 72 72 72 71 70 69 68 67 65 64 63 61 58 56 54 53 52 51 50 50 50 49 48 47 47 48 48 48 48 49 50 51 52 53 55 55 54 54 55 56 55 55 53 51 49 48 47 49 51 51 50 48 46 45 46 46 46 46 45 46 46 45 46 47 49 51 53
58 62 66 68 69 68 68 68 69 69 69 69 70 70 70 70 70 70 71 71 72 72 72 72 71 69 68 67 65 63 62 60 58 56 54 53 51 50 49 48 47 46 46 45 46 46 46 45 46 48 49 50 50 50 51 53 53 53 54 54 54 53 52 50 49 49 48 49 50 51 51 49 47 46 45 45 45 45 46 46 46 46 47 48 50 52 54
57 61 64 67 68 69 69 70 70 70 70 70 70 70 70 70 70 70 70 70 71 72 72 72 70 69 68 67 65 63 61 59 57 56 55 53 51 49 47 46 46 46 45 45 45 45 44 44 46 47 48 47 47 47 49 51 52 53 54 54 53 52 51 51 51 50 50 49 49 50 51 51 50 49 48 47 47 47 47 47 48 48 47 48 49 50 52
56 60 63 66 68 69 69 70 70 70 70 70 70 70 70 69 69 68 68 70 71 72 73 72 71 70 70 68 66 63 60 57 55 55 54 53 50 48 47 46 45 44 44 43 43 43 42 43 45 46 45 44 45 45 46 48 50 52 53 53 52 51 51 52 52 52 51 50 49 50 51 52 52 52 52 51 50 50 50 50 50 49 48 48 49 49 50
54 58 61 64 67 68 69 69 69 69 69 69 69 68 68 68 67 67 68 70 72 73 74 73 72 71 70 67 64 61 58 55 53 53 52 51 49 48 46 45 44 43 43 42 41 41 42 43 44 43 42 42 43 44 44 44 46 49 51 51 50 50 51 52 53 53 52 51 50 50 50 51 52 53 53 53 52 52 51 51 50 48 47 47 48 48 48
52 56 59 62 65 66 68 68 68 67 66 67 67 67 67 67 67 67 68 70 72 74 75 74 73 71 69 66 64 60 57 54 53 52 51 50 49 47 46 45 44 43 41 40 40 41 42 42 41 41 40 41 41 41 41 42 44 45 47 47 47 47 48 50 51 50 49 49 49 49 49 49 50 50 51 51 51 50 49 49 47 45 43 43 44 44 45
51 54 57 59 62 64 65 66 66 66 67 67 68 68 69 69 70 70 72 74 76 77 77 75 73 71 69 66 63 59 56 54 53 51 50 49 48 46 45 44 43 41 40 39 40 41 40 39 38 38 39 39 38 38 38 40 41 42 42 42 42 43 44 46 46 46 45 45 46 47 47 47 46 46 46 45 44 43 43 42 41 40 39 39 41 42 43
49 52 55 57 60 62 64 65 66 68 69 70 71 72 72 73 74 76 77 78 78 77 75 73 71 69 66 63 60 57 55 53 52 50 49 48 46 46 45 43 41 40 39 40 40 39 37 36 37 38 38 37 35 35 36 38 39 39 38 37 37 39 40 41 41 41 41 42 42 43 43 43 43 41 40 39 38 37 37 38 38 37 38 39 40 42 43
49 51 54 56 59 61 64 66 68 70 72 74 75 76 76 77 77 76 75 75 73 72 70 69 68 66 63 60 58 55 54 52 50 48 47 47 46 45 43 41 40 40 40 39 37 36 35 35 37 37 36 34 33 33 35 35 35 35 34 34 34 35 36 37 36 35 35 36 38 39 40 40 40 39 38 37 37 37 37 37 37 38 38 39 40 41 42
49 51 54 56 59 62 65 67 69 71 72 73 74 74 75 75 75 73 72 71 70 69 69 68 67 64 61 58 56 54 52 50 49 47 47 46 45 43 42 42 41 40 38 36 35 35 36 36 36 35 33 32 31 32 32 32 31 31 31 31 31 31 32 32 31 30 29 31 34 36 37 38 38 38 38 38 37 37 37 37 37 37 39 39 40 40 39
51 53 55 57 59 61 63 65 67 68 69 69 70 71 72 72 72 72 70 69 68 67 67 66 64 62 59 57 55 53 51 50 48 47 46 45 44 43 43 42 39 37 35 35 35 36 36 35 34 32 31 30 29 29 28 27 27 28 29 29 29 29 28 26 26 25 24 25 29 34 36 36 35 36 37 36 35 35 35 35 35 37 38 39 38 37 36
52 54 56 58 59 61 62 63 64 65 66 68 69 71 72 72 71 70 69 68 66 65 64 64 62 60 58 56 53 51 50 50 48 47 45 45 44 43 41 39 36 35 35 36 36 35 33 32 30 29 28 27 27 26 26 25 25 26 27 27 27 27 26 25 26 28 29 28 29 32 35 35 35 35 35 34 33 33 33 33 35 36 37 36 36 34 32
53 55 56 57 58 60 62 63 64 66 67 69 71 72 72 71 70 69 68 67 66 65 63 61 59 58 56 54 52 51 50 49 47 46 44 43 42 41 40 37 36 35 35 34 32 30 29 28 28 28 27 27 26 25 24 24 25 25 26 26 26 25 25 26 28 32 34 33 31 33 34 35 34 33 33 32 31 31 31 33 34 34 34 34 33 30 29
54 54 55 56 57 60 62 64 66 68 69 71 72 72 72 72 71 70 69 68 66 65 62 60 58 57 56 54 52 50 48 47 45 44 43 43 42 40 38 36 34 33 32 30 28 27 27 28 28 28 27 27 26 25 24 24 24 24 25 25 24 24 26 28 31 32 33 32 31 33 33 32 31 31 30 30 29 29 31 32 33 33 33 32 30 27 27
Wind_Direction
284 285 287 288 288 291 289 283 277 278 277 263 252 252 254 252 247 243 241 238 234 232 230 230 229 229 229 228 227 227 228 227 224 223 223 223 223 221 221 221 221 220 220 219 219 219 220 221 224 225 226 227 225 223 222 221 221 223 224 225 226 226 225 226 228 228 227 228 230 228 228 231 232 233 235 235 233 229 229 227 219 216 222 228 233 232 230
280 283 287 288 286 287 288 284 276 274 275 264 251 249 251 247 242 239 238 236 233 230 229 228 226 223 221 219 217 218 220 221 221 221 223 224 226 226 225 224 223 222 221 220 219 220 221 220 220 222 224 224 225 224 222 219 220 222 224 225 226 225 225 225 226 228 229 230 232 230 226 226 224 225 229 228 224 222 223 221 216 215 220 225 229 230 229
275 279 285 287 285 284 285 283 275 271 272 264 250 246 247 243 238 236 235 233 230 227 224 222 220 218 216 214 211 211 211 213 215 217 219 221 223 226 228 228 226 224 221 222 222 221 222 220 217 219 222 222 223 225 223 220 219 222 223 224 226 225 225 225 226 229 230 231 235 235 231 227 222 223 228 225 218 217 219 218 214 213 218 224 226 227 229
270 275 281 284 284 281 281 281 274 268 268 264 250 243 243 240 235 234 233 230 226 222 219 216 217 217 214 211 210 209 207 206 210 214 216 218 220 223 226 227 227 225 222 221 222 221 222 223 219 218 221 222 222 224 224 222 221 224 224 223 225 225 226 227 228 231 232 230 232 233 232 230 226 225 228 229 225 223 222 221 218 215 219 224 226 227 229
269 272 277 282 282 279 278 277 272 265 265 263 250 240 240 238 233 231 230 227 222 218 216 215 217 218 214 211 210 210 207 204 206 210 214 218 220 222 224 224 226 227 225 223 225 225 227 229 225 221 221 223 222 223 225 224 223 226 226 224 226 228 228 228 228 229 228 224 224 226 229 231 233 231 229 228 228 227 227 227 224 220 220 223 226 228 229
267 271 275 279 280 278 276 274 269 263 261 261 250 239 236 235 232 228 226 222 217 213 212 215 218 217 214 212 211 211 211 208 205 205 209 214 219 222 224 223 222 224 225 222 221 223 228 232 231 227 224 224 223 223 225 225 223 224 226 224 225 228 229 228 226 225 226 226 227 230 230 230 232 233 231 229 227 222 221 225 225 224 223 222 225 229 231
266 269 273 276 278 277 275 272 266 259 258 260 250 237 233 232 230 227 222 217 212 208 208 213 217 215 211 211 212 212 212 211 207 206 207 211 215 220 222 221 219 220 222 221 219 219 224 230 232 230 227 225 224 222 224 225 223 222 224 223 222 225 226 225 225 226 227 227 228 231 232 230 229 230 229 230 229 222 217 221 225 226 226 223 224 228 231
265 267 270 273 275 275 273 269 262 255 255 258 250 236 230 230 228 225 220 213 209 206 207 213 217 213 208 207 209 210 211 210 209 209 209 210 213 217 219 219 218 218 220 222 220 220 224 228 231 232 231 228 224 222 222 225 225 222 221 221 222 225 226 225 225 226 226 224 224 227 229 230 230 231 229 229 229 224 218 220 223 226 226 225 225 228 232
263 265 267 270 273 273 270 264 257 252 251 255 251 235 228 228 226 223 218 211 206 205 208 215 218 214 208 206 207 207 206 206 208 210 210 210 212 214 216 218 218 217 218 220 220 222 225 227 228 230 231 229 225 223 223 224 226 224 222 222 223 224 223 222 221 221 223 224 226 229 230 230 229 229 229 228 229 228 223 221 223 225 224 224 225 228 232
262 263 265 267 269 269 266 258 252 249 248 252 251 236 226 226 224 221 217 210 205 205 208 215 218 214 208 208 208 206 202 203 206 209 210 211 212 212 213 216 217 217 217 217 219 221 223 225 226 227 230 230 227 226 225 224 224 223 220 220 223 223 219 218 220 223 225 229 231 233 234 233 231 230 230 230 232 232 229 226 225 226 226 227 228 229 233
260 262 263 264 265 264 260 253 248 247 246 248 250 237 225 223 223 219 215 210 205 205 207 213 217 214 209 208 208 205 201 202 204 206 207 209 211 210 210 212 213 214 214 214 217 220 222 225 225 225 230 232 230 228 226 224 224 223 221 220 221 222 219 216 218 222 226 232 234 235 235 234 232 232 232 232 233 234 232 230 228 228 228 230 233 234 235
259 259 260 261 261 258 255 249 245 245 244 245 248 238 224 221 222 218 213 209 206 205 207 211 214 214 210 206 205 202 200 202 203 203 203 205 207 207 208 209 210 210 210 211 215 217 220 224 225 225 229 232 233 232 228 226 227 226 224 225 225 225 221 215 216 219 221 227 232 233 233 232 231 232 232 232 233 234 233 231 231 230 229 230 233 235 236
259 257 256 256 255 252 249 245 243 244 243 242 245 239 224 219 220 217 212 208 205 205 207 209 211 213 210 204 201 199 199 200 200 198 199 201 203 204 205 206 206 209 211 212 214 214 216 222 225 225 228 230 231 230 226 225 225 224 222 225 227 228 224 219 221 223 223 227 233 236 236 234 233 234 234 234 234 236 235 233 232 233 231 230 234 238 239
257 255 252 251 249 248 246 244 242 242 242 241 243 238 225 218 218 217 212 207 205 205 206 207 209 211 208 202 199 198 198 196 194 193 196 200 200 200 203 204 204 209 214 215 216 213 212 218 222 222 224 227 229 229 227 225 226 224 222 223 225 226 224 222 225 228 229 232 236 237 237 237 237 239 239 239 239 241 240 237 235 236 233 232 236 240 241
254 251 250 248 246 244 244 243 242 241 241 240 240 237 225 217 216 216 211 207 205 205 206 206 206 206 203 200 199 198 196 193 191 190 192 196 197 198 200 201 202 208 214 216 217 213 209 213 218 219 222 225 228 230 230 228 227 225 222 222 223 224 223 223 227 231 232 234 237 238 238 237 238 240 242 242 242 242 242 240 239 239 234 231 236 243 244
251 250 248 246 244 243 242 242 241 240 239 238 238 236 225 216 215 214 211 207 204 205 205 204 204 204 201 199 200 197 193 190 188 187 188 191 194 196 198 198 199 204 211 214 215 214 213 216 218 220 222 224 227 230 229 227 227 225 223 223 223 223 222 221 224 227 228 228 230 235 238 238 237 239 240 240 240 240 239 236 235 235 234 232 235 241 246
249 249 247 246 244 241 240 241 240 239 238 235 235 235 226 216 213 213 211 207 204 204 205 203 203 204 202 200 199 195 191 188 186 185 187 192 193 194 197 197 192 193 203 210 214 218 222 225 225 225 226 225 225 227 227 227 228 226 224 223 224 225 226 224 223 224 226 226 226 230 234 235 235 236 237 238 239 239 239 237 234 234 236 238 239 243 248
247 247 246 244 243 241 239 239 239 238 237 233 232 233 226 216 212 212 210 207 204 204 205 204 202 204 204 200 198 194 190 189 188 186 189 195 196 194 193 188 179 180 195 208 215 221 225 229 231 231 231 230 227 225 225 225 227 226 224 223 224 225 228 228 226 226 227 227 227 229 232 233 234 236 238 239 240 241 241 240 237 236 238 240 243 246 249
244 244 244 242 241 239 238 237 238 237 236 232 230 232 227 217 212 211 210 207 205 204 206 204 202 205 206 202 199 196 192 191 192 190 192 196 197 193 189 184 178 181 195 207 216 222 224 226 229 229 232 234 231 228 226 225 225 225 223 223 223 224 226 227 227 227 228 227 227 228 231 234 237 239 241 243 243 243 243 243 241 241 242 242 244 246 249
243 242 242 241 239 238 237 236 236 236 236 233 229 230 228 218 212 210 209 207 205 204 205 204 203 205 206 204 201 198 196 194 194 193 194 196 195 192 190 187 183 186 197 208 215 220 222 224 225 225 229 235 235 233 232 230 228 228 227 225 223 224 225 225 225 225 225 225 225 225 228 231 234 236 239 241 241 242 243 243 244 245 245 245 246 247 250
241 240 240 239 238 237 236 236 236 236 236 234 230 229 229 220 211 209 209 207 204 204 205 205 204 204 205 205 203 201 200 199 198 197 196 196 194 193 193 191 188 190 200 210 216 220 221 223 223 221 224 232 236 234 233 232 230 230 230 228 225 223 224 225 226 226 226 226 226 227 227 229 232 233 235 236 238 239 240 242 245 246 247 248 248 248 250
239 239 238 237 237 236 236 236 237 237 237 236 232 229 228 221 211 209 209 207 204 204 205 206 205 203 204 205 205 204 205 204 203 201 199 196 195 198 199 198 195 196 202 210 217 220 220 220 220 219 220 227 234 236 235 234 231 230 230 231 229 226 224 225 227 227 227 228 230 230 230 231 232 233 234 235 237 239 241 244 245 247 250 252 252 252 253
237 237 237 236 235 235 236 236 237 237 237 237 234 230 227 220 212 208 209 208 204 203 205 207 206 204 203 204 205 207 208 207 206 204 201 198 197 201 205 207 206 205 207 211 216 219 219 219 220 220 221 225 231 236 237 236 234 231 230 230 231 229 226 225 227 228 227 229 230 231 232 233 235 236 237 237 239 241 244 246 248 250 252 255 256 257 257
235 235 235 235 234 234 234 235 235 235 236 236 234 229 225 219 212 208 208 208 205 203 205 208 206 204 204 205 206 208 209 208 206 204 202 200 200 202 206 211 213 213 213 215 218 220 221 222 222 222 223 225 229 234 236 236 235 233 231 229 231 232 230 227 227 228 227 227 228 229 230 232 235 238 241 241 242 243 246 249 252 253 255 256 257 257 258
234 234 234 233 232 232 232 233 233 234 234 234 233 228 222 217 212 207 206 207 205 202 205 208 206 203 205 207 208 208 209 207 205 204 203 202 202 204 207 210 214 216 217 219 221 222 223 223 224 225 226 227 228 231 234 236 236 236 233 231 231 233 232 230 229 229 229 228 227 227 228 229 232 235 238 240 242 245 249 253 256 256 256 255 255 255 256
232 232 232 232 231 230 230 231 231 231 232 231 230 226 220 215 211 207 205 207 206 202 204 207 205 203 206 209 208 208 208 207 206 206 206 206 206 208 210 211 214 217 219 220 221 222 224 225 226 228 230 231 231 232 235 237 238 238 237 234 233 234 233 232 232 232 232 232 231 228 227 228 231 234 235 237 240 243 246 251 254 255 254 255 255 255 256
230 230 230 230 229 229 229 229 229 229 228 227 225 222 217 213 210 207 204 206 206 203 203 206 205 204 206 209 208 207 208 208 208 208 209 210 211 212 214 215 215 218 220 221 222 224 228 229 229 230 232 235 235 234 235 237 239 239 238 236 236 236 235 235 235 235 234 235 235 233 229 227 229 232 235 237 239 240 242 246 250 253 254 256 257 258 259
228 227 227 227 227 227 227 228 227 226 225 223 221 219 215 211 209 206 204 205 205 204 203 204 205 205 207 208 207 207 208 209 210 210 210 212 213 215 217 219 218 220 221 223 224 227 230 231 231 231 233 236 237 236 236 237 239 239 238 236 235 236 236 237 239 239 237 238 239 240 237 234 232 234 236 238 240 242 244 246 249 252 256 258 259 261 263
224 224 224 224 224 224 225 225 225 224 222 220 218 215 212 209 207 205 204 204 205 204 203 203 204 206 207 207 207 208 208 209 211 211 211 212 214 216 219 220 220 221 223 225 226 228 230 231 232 232 234 236 237 237 237 238 239 239 238 236 236 237 237 239 243 244 243 241 242 244 244 242 241 241 241 241 242 244 246 248 251 253 255 256 259 263 266
219 220 220 220 220 221 222 222 222 221 219 217 215 212 210 207 205 204 204 204 204 204 203 202 202 206 208 207 206 208 209 210 211 212 212 213 216 219 221 223 222 222 223 224 226 227 229 230 232 233 234 236 238 239 239 239 239 239 239 237 238 240 240 241 245 247 247 245 244 245 245 245 245 246 248 249 249 249 249 251 253 255 256 257 260 263 266
215 215 216 216 217 217 218 219 218 216 215 214 212 210 208 207 204 203 204 204 204 204 203 202 202 205 207 207 206 208 209 210 211 212 213 214 216 219 222 224 224 223 222 223 226 228 229 230 231 232 234 236 237 238 240 241 240 241 242 241 241 244 245 245 246 248 249 247 245 245 246 247 248 249 252 255 256 256 256 256 257 257 258 260 262 264 267
212 211 212 213 213 214 215 214 213 211 210 210 209 207 207 206 203 202 203 204 203 203 203 202 201 204 207 207 206 208 209 209 210 212 213 215 217 219 221 224 225 225 224 225 227 228 229 230 230 231 233 235 237 238 240 242 243 243 245 245 246 248 249 248 247 248 250 250 249 247 247 249 251 253 255 257 259 260 261 261 261 261 262 263 264 267 270
210 208 208 209 210 211 211 210 209 207 207 207 206 205 205 205 203 201 202 203 203 203 203 202 202 204 206 207 207 208 209 209 210 211 214 216 218 219 220 222 225 226 227 227 228 229 231 232 233 233 234 235 238 239 240 241 243 245 247 249 251 251 251 250 249 249 250 251 251 248 247 249 251 253 255 258 260 261 262 263 264 263 262 263 265 268 271
208 206 206 206 207 208 208 207 205 204 205 205 204 203 204 204 202 200 201 203 203 203 203 203 202 203 205 207 207 208 209 210 211 213 214 216 218 219 220 222 225 227 229 230 231 233 234 235 237 237 237 238 239 240 240 241 242 245 247 249 250 250 250 250 250 249 249 251 252 249 247 248 250 251 253 255 258 260 262 264 265 264 264 265 267 269 271
207 205 204 204 204 205 205 204 203 203 203 203 202 202 203 204 202 200 200 202 202 202 203 203 203 203 205 207 208 208 209 210 211 213 215 216 218 220 221 224 226 229 231 233 235 236 238 239 240 240 240 240 241 241 242 242 242 243 244 245 246 248 248 248 249 249 249 250 251 250 248 247 248 250 252 254 256 259 261 263 265 265 265 266 268 270 272
206 204 203 202 202 202 203 202 201 202 202 202 200 201 203 204 202 200 199 201 202 202 203 203 203 203 205 207 208 208 209 210 212 214 215 216 219 221 223 225 228 230 232 234 236 237 239 240 240 240 240 241 241 241 242 243 242 241 241 241 244 246 246 245 246 248 249 249 250 251 250 249 249 250 252 254 256 257 259 262 264 266 266 265 266 269 271
205 203 202 201 201 201 200 200 200 201 201 200 200 201 203 203 202 200 199 200 201 202 202 203 204 204 205 206 207 209 209 210 211 213 214 216 219 221 224 226 228 230 232 234 235 237 238 239 239 239 240 240 240 241 242 242 241 240 240 241 243 244 245 244 245 245 246 247 249 251 251 251 252 252 254 255 256 257 258 260 263 265 266 266 266 267 269
204 202 202 201 200 199 198 198 199 200 200 199 199 201 202 202 201 200 199 199 201 202 202 203 204 204 205 206 208 209 210 210 211 212 213 215 218 220 223 226 228 230 232 234 236 237 238 239 239 240 240 240 240 240 241 241 240 239 240 241 242 243 244 245 244 244 244 245 248 250 251 251 252 254 254 255 256 258 260 261 263 265 267 267 267 267 269
202 201 201 201 200 199 197 197 197 198 199 199 199 200 201 201 200 199 198 199 200 201 202 203 204 204 205 206 208 209 210 210 211 213 214 216 218 220 222 226 229 231 233 235 237 239 240 241 241 241 241 240 240 240 240 241 240 240 240 241 242 243 244 245 246 245 243 244 246 249 251 251 252 253 253 253 255 258 260 262 264 266 268 268 268 268 269
201 200 200 200 199 198 197 196 196 197 198 198 199 199 199 199 199 198 197 198 200 201 202 203 203 204 205 207 208 209 210 210 211 213 215 216 218 221 223 226 229 232 233 235 237 239 242 243 244 243 242 241 241 240 241 241 241 240 240 240 241 243 244 246 247 246 245 243 244 247 249 251 252 253 253 253 255 257 259 262 264 266 267 268 268 269 270
200 199 199 199 199 198 197 196 196 196 196 196 197 198 198 198 198 197 197 197 199 201 202 203 203 203 205 206 207 209 210 210 211 213 215 216 218 220 223 225 228 231 233 234 236 239 241 243 244 243 242 242 241 241 241 240 241 241 240 240 240 242 243 245 246 247 246 245 245 245 247 250 253 254 255 255 257 259 261 264 265 266 267 267 268 270 272
198 198 198 198 198 198 197 196 196 196 195 195 196 196 196 197 197 196 196 197 199 201 202 202 202 203 205 206 207 208 209 209 210 213 215 216 217 219 222 225 228 230 232 234 236 238 240 241 243 243 243 242 242 242 241 241 241 241 242 241 241 241 243 244 246 247 248 248 248 248 249 250 252 254 255 256 259 262 263 265 266 268 269 269 270 272 274
196 196 196 196 197 197 197 197 197 196 196 195 195 196 196 196 197 196 196 197 199 201 202 202 202 203 205 206 206 208 208 209 211 213 215 216 217 219 222 225 227 229 232 234 236 238 240 240 242 243 244 243 243 243 243 242 242 242 242 243 243 242 243 244 245 247 249 251 252 252 252 252 252 253 254 256 259 262 264 266 268 272 273 272 271 273 274
194 194 194 195 196 196 196 197 197 196 196 195 195 195 196 196 196 197 197 198 200 201 202 201 201 203 204 205 205 206 207 208 210 212 214 215 217 218 221 224 227 229 231 234 237 239 240 241 242 244 245 245 244 244 243 243 242 242 243 243 244 244 244 244 245 246 248 250 252 253 252 252 253 252 253 254 257 261 264 266 269 272 273 272 271 272 274
191 192 193 194 194 195 195 195 195 195 195 195 195 195 196 196 195 196 197 198 200 201 201 200 200 201 203 203 204 205 206 208 210 211 213 215 216 218 221 224 227 229 232 234 237 240 241 243 244 245 245 245 245 244 243 242 242 242 243 243 243 244 245 245 245 244 245 247 249 249 249 250 251 250 250 252 256 259 262 264 267 270 271 272 274 276 277
188 189 190 191 192 193 194 194 194 194 194 194 194 195 195 195 196 196 197 198 199 200 200 199 199 201 202 202 203 204 206 208 209 211 213 214 216 218 221 224 227 230 233 235 238 241 243 245 246 245 245 245 245 244 243 241 241 242 242 241 241 241 243 244 243 242 242 243 244 245 244 245 245 245 246 249 252 255 258 261 264 268 271 274 277 280 283
185 186 188 188 189 190 191 192 192 192 193 193 194 194 194 194 195 196 197 198 199 199 198 198 199 200 201 201 202 204 206 208 209 210 212 214 216 219 222 225 227 230 233 236 239 242 245 246 247 247 246 245 244 243 241 240 240 239 239 238 237 238 240 241 240 239 239 239 239 239 240 239 239 240 242 245 249 253 257 261 265 269 273 276 279 282 285
183 184 185 186 187 188 189 190 191 191 192 192 193 193 193 193 194 195 196 196 197 197 196 196 197 198 199 200 201 203 206 207 208 210 212 214 216 218 222 225 227 230 233 237 240 243 244 245 245 245 245 244 243 243 242 241 239 238 237 237 235 235 237 238 237 236 237 238 236 235 235 236 236 237 241 245 250 254 259 263 268 272 275 278 281 284 286
181 182 183 185 186 186 187 188 189 189 189 189 190 190 191 191 191 192 193 194 194 194 195 195 196 197 198 199 200 203 205 206 207 208 211 213 215 218 222 225 228 231 234 237 239 241 242 243 243 244 244 243 242 242 243 242 240 238 237 236 235 235 235 233 228 224 226 231 233 233 233 233 234 236 240 244 250 255 260 266 271 274 278 282 286 288 289
180 181 182 183 183 183 184 184 184 185 185 185 186 187 188 188 189 190 190 191 191 192 193 194 196 197 197 198 200 203 205 206 206 207 209 212 215 218 222 225 228 231 234 237 238 240 241 241 241 242 242 241 239 238 238 238 237 237 237 236 235 233 230 226 220 216 213 215 222 227 228 229 230 234 238 244 250 256 262 269 273 277 282 288 292 293 293
180 181 181 181 180 180 180 180 180 180 180 181 183 183 184 185 186 187 188 188 188 189 190 193 195 196 197 198 200 203 206 207 206 207 209 212 215 218 221 225 228 231 234 236 236 236 235 235 235 235 236 236 235 233 232 231 231 232 233 233 232 229 223 219 218 218 217 218 222 225 226 226 229 233 239 245 251 258 265 271 276 281 289 295 297 296 296
179 179 178 178 178 178 178 177 176 176 177 178 179 181 182 183 184 185 185 186 186 186 188 191 194 196 197 199 201 204 206 207 207 208 209 212 214 217 221 225 228 230 232 232 231 229 229 229 230 231 232 233 233 231 229 228 228 228 228 228 227 223 216 213 215 219 222 224 226 228 228 228 230 234 241 247 254 261 268 273 279 287 295 299 299 298 297
Height
10753 10753 10753 10753 10753 10754 10753 10752 10752 10753 10753 10753 10753 10753 10754 10756 10758 10759 10759 10759 10761 10763 10766 10770 10775 10780 10783 10786 10791 10796 10799 10802 10806 10809 10812 10814 10816 10817 10818 10819 10821 10824 10826 10829 10832 10835 10836 10839 10842 10845 10846 10849 10851 10854 10856 10858 10861 10862 10864 10865 10866 10869 10872 10873 10874 10875 10876 10877 10878 10880 10882 10884 10886 10888 10889 10889 10892 10897 10900 10901 10903 10904 10905 10905 10905 10907 10908
10747 10747 10747 10747 10748 10748 10748 10747 10747 10748 10749 10748 10748 10749 10750 10752 10754 10755 10755 10755 10757 10761 10764 10769 10773 10775 10777 10780 10784 10788 10792 10797 10802 10805 10807 10809 10812 10813 10814 10815 10818 10821 10824 10827 10828 10829 10831 10835 10838 10840 10842 10845 10847 10849 10851 10855 10857 10858 10859 10861 10864 10867 10868 10869 10871 10872 10873 10874 10876 10877 10879 10880 10883 10884 10883 10885 10890 10893 10895 10896 10899 10901 10902 10902 10903 10904 10905
10740 10741 10741 10741 10742 10743 10744 10743 10742 10743 10744 10744 10744 10745 10746 10748 10750 10750 10751 10752 10755 10759 10762 10765 10767 10767 10769 10773 10777 10780 10785 10791 10795 10798 10800 10803 10806 10808 10810 10813 10817 10819 10822 10825 10826 10827 10828 10831 10834 10837 10839 10841 10843 10845 10847 10850 10852 10853 10855 10858 10861 10863 10864 10866 10868 10869 10870 10873 10874 10876 10877 10877 10878 10879 10879 10882 10886 10888 10888 10891 10894 10897 10898 10898 10899 10901 10901
10734 10735 10735 10735 10736 10737 10738 10738 10738 10738 10739 10740 10740 10741 10742 10744 10746 10746 10747 10750 10753 10755 10757 10760 10760 10761 10764 10768 10771 10774 10779 10784 10788 10791 10794 10797 10800 10803 10806 10810 10814 10816 10820 10822 10824 10826 10826 10827 10831 10834 10835 10837 10840 10842 10844 10846 10849 10850 10853 10855 10857 10858 10861 10863 10865 10866 10869 10871 10872 10873 10873 10873 10874 10875 10877 10879 10882 10884 10886 10889 10892 10894 10895 10896 10897 10898 10897
10727 10728 10728 10729 10730 10731 10732 10733 10733 10733 10734 10735 10735 10736 10738 10740 10741 10742 10744 10747 10750 10752 10754 10756 10756 10757 10761 10764 10767 10770 10774 10777 10781 10786 10790 10794 10796 10799 10802 10807 10811 10815 10819 10822 10824 10827 10827 10827 10829 10831 10833 10835 10837 10839 10840 10843 10846 10848 10849 10852 10854 10856 10859 10861 10862 10864 10866 10867 10868 10868 10869 10870 10872 10873 10874 10876 10879 10882 10886 10889 10891 10892 10893 10894 10895 10895 10894
10721 10721 10721 10722 10723 10724 10726 10727 10728 10728 10729 10730 10731 10732 10734 10735 10736 10738 10741 10744 10746 10749 10751 10752 10752 10754 10758 10761 10764 10767 10770 10773 10777 10781 10785 10789 10792 10795 10799 10804 10808 10811 10815 10817 10819 10824 10826 10827 10828 10830 10831 10832 10834 10836 10838 10839 10842 10843 10845 10850 10852 10854 10855 10857 10859 10861 10862 10864 10865 10866 10866 10867 10868 10869 10871 10872 10874 10879 10884 10886 10887 10889 10890 10891 10892 10892 10892
10714 10714 10714 10714 10716 10718 10719 10721 10722 10723 10723 10724 10726 10727 10729 10731 10732 10734 10738 10740 10742 10745 10747 10747 10747 10749 10753 10758 10760 10763 10767 10772 10776 10778 10780 10783 10787 10791 10795 10801 10803 10805 10807 10810 10815 10821 10824 10826 10827 10827 10829 10830 10833 10834 10834 10834 10837 10840 10843 10847 10849 10849 10850 10853 10856 10858 10859 10861 10862 10862 10863 10863 10864 10865 10868 10869 10872 10876 10880 10882 10883 10886 10887 10889 10889 10889 10889
10706 10707 10707 10707 10709 10711 10713 10714 10716 10718 10718 10718 10720 10722 10724 10726 10727 10730 10733 10736 10739 10742 10743 10743 10743 10745 10749 10753 10755 10759 10764 10771 10774 10774 10776 10780 10783 10787 10793 10796 10797 10799 10803 10808 10815 10819 10821 10822 10824 10826 10829 10830 10830 10830 10830 10831 10833 10837 10840 10842 10844 10845 10847 10850 10853 10855 10857 10858 10858 10858 10859 10860 10862 10863 10865 10867 10869 10872 10876 10878 10880 10883 10885 10886 10887 10886 10887
10699 10699 10700 10700 10702 10703 10706 10708 10709 10712 10712 10713 10715 10717 10719 10721 10723 10725 10729 10732 10735 10737 10738 10739 10740 10743 10747 10749 10750 10755 10761 10767 10769 10771 10774 10777 10780 10785 10789 10791 10792 10795 10800 10807 10812 10815 10815 10817 10820 10824 10827 10827 10825 10826 10827 10829 10831 10834 10837 10839 10840 10842 10844 10847 10850 10851 10852 10853 10854 10854 10855 10857 10859 10860 10862 10863 10865 10868 10872 10875 10877 10879 10881 10882 10883 10883 10884
10691 10691 10692 10693 10695 10696 10699 10701 10703 10705 10707 10708 10709 10711 10714 10716 10718 10721 10725 10728 10730 10732 10734 10736 10737 10741 10744 10746 10748 10753 10759 10762 10764 10767 10771 10774 10777 10782 10785 10786 10789 10793 10798 10804 10807 10808 10809 10812 10816 10820 10822 10822 10823 10824 10825 10827 10827 10829 10832 10834 10836 10838 10841 10844 10845 10847 10848 10849 10850 10851 10852 10854 10856 10857 10858 10859 10861 10866 10870 10872 10874 10875 10877 10879 10880 10880 10880
10682 10683 10684 10686 10688 10689 10691 10694 10696 10698 10701 10702 10703 10705 10708 10711 10714 10717 10720 10723 10726 10728 10731 10733 10735 10738 10741 10744 10747 10753 10757 10758 10760 10763 10768 10772 10776 10779 10782 10784 10787 10790 10794 10798 10800 10802 10806 10809 10812 10815 10817 10819 10820 10821 10821 10822 10823 10825 10828 10830 10832 10834 10837 10840 10842 10843 10845 10845 10846 10848 10849 10851 10854 10855 10855 10857 10859 10863 10866 10868 10870 10872 10874 10875 10876 10877 10877
10673 10675 10676 10678 10680 10682 10684 10687 10689 10692 10694 10697 10698 10700 10703 10706 10709 10712 10716 10719 10722 10724 10727 10729 10732 10735 10738 10741 10745 10750 10753 10753 10756 10761 10765 10769 10773 10776 10779 10782 10785 10786 10788 10791 10793 10797 10802 10805 10807 10810 10812 10815 10817 10818 10818 10820 10821 10823 10827 10828 10829 10832 10836 10838 10838 10839 10841 10841 10842 10844 10846 10849 10852 10852 10852 10854 10856 10859 10862 10864 10867 10868 10870 10872 10873 10872 10872
10664 10666 10667 10669 10672 10674 10677 10680 10683 10685 10688 10691 10693 10694 10697 10701 10704 10707 10711 10714 10717 10720 10723 10727 10730 10732 10735 10738 10741 10745 10746 10748 10754 10759 10762 10766 10770 10772 10775 10779 10782 10783 10785 10786 10788 10793 10798 10800 10803 10806 10808 10810 10812 10812 10814 10816 10817 10820 10823 10826 10828 10831 10834 10836 10835 10836 10838 10838 10839 10842 10844 10847 10848 10848 10849 10852 10853 10855 10857 10861 10863 10865 10867 10869 10869 10868 10867
10655 10657 10659 10662 10664 10667 10669 10673 10676 10679 10682 10685 10687 10689 10692 10696 10699 10702 10706 10710 10713 10716 10720 10724 10726 10728 10731 10734 10737 10739 10741 10745 10750 10754 10759 10762 10766 10769 10773 10776 10779 10781 10783 10785 10787 10791 10795 10797 10799 10802 10803 10805 10807 10808 10811 10813 10814 10818 10821 10823 10825 10827 10830 10832 10832 10833 10836 10836 10838 10840 10842 10843 10845 10846 10847 10850 10852 10853 10855 10859 10861 10863 10865 10866 10865 10863 10863
10645 10648 10651 10654 10657 10660 10663 10666 10669 10673 10676 10678 10681 10684 10686 10690 10694 10697 10701 10705 10708 10711 10716 10720 10722 10725 10728 10730 10733 10736 10739 10742 10746 10751 10755 10759 10763 10768 10771 10774 10776 10779 10781 10783 10785 10788 10791 10793 10795 10797 10799 10801 10804 10806 10808 10811 10813 10815 10818 10819 10820 10822 10825 10827 10829 10831 10833 10835 10836 10838 10838 10840 10843 10844 10845 10848 10849 10851 10853 10856 10858 10860 10862 10862 10859 10857 10858
10635 10639 10643 10646 10649 10652 10655 10658 10662 10665 10669 10672 10675 10678 10680 10684 10689 10692 10696 10700 10703 10707 10711 10715 10718 10721 10724 10727 10729 10733 10736 10740 10744 10749 10753 10756 10761 10765 10767 10770 10773 10775 10778 10780 10781 10784 10786 10788 10790 10793 10796 10799 10801 10802 10804 10807 10809 10811 10813 10815 10817 10818 10820 10822 10824 10827 10829 10832 10833 10834 10835 10837 10839 10840 10842 10843 10844 10846 10848 10851 10854 10856 10856 10856 10854 10853 10853
10626 10630 10633 10637 10641 10645 10648 10650 10654 10658 10662 10666 10669 10672 10674 10679 10683 10686 10690 10694 10698 10702 10706 10710 10714 10718 10721 10723 10726 10729 10733 10736 10740 10745 10749 10753 10758 10761 10763 10766 10770 10773 10776 10778 10780 10781 10783 10784 10787 10791 10794 10795 10796 10797 10799 10803 10805 10808 10810 10812 10814 10815 10817 10818 10821 10823 10825 10828 10830 10831 10831 10833 10834 10835 10836 10838 10839 10842 10844 10847 10850 10850 10850 10850 10850 10849 10849
10616 10620 10624 10628 10633 10637 10640 10643 10646 10650 10655 10659 10663 10666 10669 10672 10676 10680 10684 10689 10693 10698 10702 10706 10710 10714 10716 10719 10722 10725 10728 10731 10734 10739 10744 10749 10753 10756 10759 10762 10767 10772 10775 10778 10779 10779 10780 10782 10785 10788 10790 10791 10791 10792 10795 10798 10801 10804 10806 10808 10810 10812 10814 10816 10818 10820 10822 10825 10827 10827 10828 10829 10829 10830 10831 10833 10836 10839 10841 10843 10844 10844 10845 10846 10846 10846 10847
10606 10610 10614 10619 10624 10628 10631 10635 10639 10643 10647 10652 10657 10660 10663 10666 10670 10674 10679 10684 10689 10693 10697 10701 10705 10708 10711 10715 10718 10721 10724 10727 10731 10735 10739 10743 10747 10751 10754 10758 10763 10769 10774 10776 10776 10775 10776 10779 10782 10785 10787 10787 10788 10790 10792 10794 10797 10799 10801 10803 10806 10808 10810 10813 10815 10817 10819 10821 10823 10824 10824 10825 10826 10827 10828 10831 10834 10836 10837 10838 10838 10839 10840 10842 10843 10844 10845
10595 10600 10604 10610 10615 10619 10623 10627 10631 10636 10640 10645 10650 10654 10656 10659 10664 10669 10674 10678 10683 10687 10691 10696 10699 10702 10706 10711 10714 10718 10721 10724 10728 10732 10735 10738 10742 10746 10750 10753 10758 10764 10768 10769 10768 10769 10771 10774 10778 10782 10784 10785 10786 10788 10791 10793 10796 10797 10798 10800 10803 10805 10807 10809 10811 10813 10815 10817 10818 10819 10820 10821 10821 10822 10824 10827 10830 10832 10832 10832 10833 10835 10836 10838 10840 10841 10840
10584 10589 10594 10600 10606 10610 10614 10618 10623 10628 10632 10637 10642 10647 10649 10652 10657 10663 10667 10672 10677 10682 10686 10689 10693 10697 10702 10707 10711 10715 10719 10722 10726 10730 10733 10737 10741 10744 10747 10750 10753 10756 10759 10761 10761 10763 10766 10770 10774 10778 10781 10782 10783 10785 10788 10790 10793 10794 10795 10796 10799 10801 10803 10806 10808 10810 10812 10813 10815 10816 10816 10817 10817 10818 10821 10823 10825 10826 10827 10828 10829 10830 10832 10835 10837 10837 10837
10572 10577 10584 10590 10596 10601 10605 10610 10615 10620 10624 10629 10635 10640 10643 10646 10651 10656 10660 10665 10672 10677 10680 10683 10688 10693 10698 10704 10709 10713 10717 10720 10724 10727 10730 10733 10737 10741 10744 10746 10747 10750 10752 10754 10755 10757 10761 10765 10770 10774 10777 10778 10780 10782 10784 10786 10789 10790 10792 10794 10796 10798 10800 10802 10804 10806 10808 10810 10811 10813 10813 10814 10815 10816 10817 10819 10820 10821 10823 10824 10826 10827 10830 10832 10833 10833 10833
10560 10566 10573 10580 10587 10592 10597 10602 10607 10612 10616 10621 10626 10632 10635 10639 10644 10649 10653 10659 10666 10671 10675 10678 10683 10689 10695 10701 10705 10708 10711 10714 10718 10722 10726 10729 10732 10736 10740 10742 10743 10745 10746 10748 10750 10753 10758 10763 10767 10770 10773 10775 10777 10779 10780 10782 10785 10787 10789 10791 10792 10795 10797 10799 10800 10803 10805 10806 10807 10809 10811 10812 10812 10813 10814 10816 10817 10818 10818 10819 10821 10825 10827 10828 10828 10829 10829
10548 10554 10562 10569 10577 10583 10588 10593 10598 10603 10608 10612 10617 10623 10628 10632 10636 10641 10647 10653 10659 10665 10670 10673 10678 10686 10692 10695 10697 10699 10702 10705 10710 10715 10720 10724 10728 10733 10736 10738 10739 10740 10741 10743 10747 10752 10756 10761 10765 10767 10769 10772 10773 10774 10776 10778 10780 10783 10786 10788 10790 10791 10793 10795 10797 10799 10800 10802 10803 10805 10807 10809 10810 10810 10811 10813 10814 10813 10813 10814 10817 10821 10823 10824 10824 10824 10823
10536 10543 10550 10558 10567 10573 10578 10583 10589 10594 10598 10603 10609 10615 10620 10625 10629 10634 10641 10646 10653 10660 10665 10668 10674 10682 10685 10685 10688 10693 10696 10700 10704 10708 10713 10718 10723 10728 10732 10733 10734 10735 10736 10740 10746 10750 10753 10757 10760 10763 10765 10767 10768 10770 10772 10774 10776 10779 10782 10785 10787 10787 10789 10792 10793 10794 10795 10797 10799 10802 10804 10806 10806 10807 10808 10809 10809 10809 10810 10811 10813 10816 10818 10818 10818 10819 10819
10524 10531 10538 10547 10555 10562 10567 10573 10579 10584 10589 10595 10601 10607 10613 10618 10622 10627 10634 10640 10646 10654 10659 10662 10669 10675 10677 10678 10683 10688 10693 10698 10702 10706 10710 10715 10719 10723 10725 10727 10728 10730 10734 10739 10744 10747 10749 10753 10756 10758 10760 10762 10764 10767 10768 10770 10773 10775 10778 10781 10783 10784 10786 10788 10789 10789 10791 10793 10796 10799 10801 10802 10803 10804 10805 10805 10806 10806 10807 10807 10809 10810 10811 10812 10813 10814 10814
10512 10519 10527 10535 10544 10551 10557 10563 10569 10575 10581 10587 10593 10598 10605 10610 10614 10620 10628 10634 10640 10647 10653 10657 10664 10669 10670 10673 10679 10685 10691 10696 10700 10704 10709 10713 10717 10720 10721 10722 10724 10728 10732 10737 10740 10742 10745 10748 10751 10754 10756 10758 10760 10763 10764 10767 10769 10771 10774 10778 10780 10781 10782 10784 10783 10785 10789 10791 10793 10795 10797 10798 10799 10799 10800 10802 10802 10803 10803 10803 10804 10805 10806 10807 10807 10808 10808
10500 10507 10515 10524 10533 10540 10547 10553 10559 10566 10572 10578 10584 10589 10596 10603 10608 10615 10622 10628 10634 10640 10645 10651 10657 10662 10664 10669 10675 10680 10684 10688 10692 10696 10701 10706 10711 10715 10716 10718 10722 10725 10728 10732 10736 10738 10741 10744 10746 10749 10751 10753 10755 10758 10761 10764 10766 10768 10771 10775 10776 10777 10778 10779 10779 10782 10786 10788 10789 10790 10792 10794 10795 10795 10797 10798 10798 10799 10799 10800 10800 10801 10802 10802 10802 10801 10802
10488 10496 10505 10514 10522 10530 10536 10542 10549 10557 10563 10569 10575 10581 10589 10596 10602 10608 10615 10621 10626 10632 10637 10645 10652 10656 10659 10665 10670 10674 10677 10681 10685 10690 10695 10699 10703 10707 10708 10712 10717 10720 10723 10727 10731 10734 10736 10738 10741 10745 10747 10748 10750 10754 10758 10760 10762 10764 10769 10772 10772 10773 10775 10776 10776 10779 10782 10784 10786 10787 10789 10790 10791 10792 10793 10794 10795 10795 10796 10796 10796 10798 10799 10798 10797 10796 10796
10478 10487 10496 10504 10512 10519 10526 10532 10540 10548 10554 10561 10567 10574 10582 10589 10594 10600 10606 10612 10618 10625 10632 10640 10647 10650 10654 10660 10664 10667 10670 10675 10680 10686 10691 10695 10699 10701 10703 10706 10711 10715 10719 10723 10726 10729 10732 10734 10737 10741 10743 10744 10747 10751 10754 10756 10759 10762 10765 10768 10769 10770 10772 10774 10775 10775 10777 10780 10783 10784 10786 10787 10787 10788 10789 10790 10791 10791 10792 10793 10794 10795 10795 10795 10793 10792 10791
10469 10478 10487 10495 10502 10509 10516 10523 10531 10539 10546 10552 10559 10567 10574 10579 10585 10592 10599 10606 10613 10620 10626 10634 10640 10644 10648 10653 10658 10661 10666 10672 10678 10683 10687 10691 10693 10696 10699 10702 10706 10710 10715 10719 10722 10725 10728 10730 10734 10737 10738 10741 10744 10747 10750 10752 10755 10758 10761 10764 10766 10767 10769 10771 10772 10771 10772 10775 10779 10781 10783 10783 10783 10784 10785 10785 10786 10786 10787 10789 10791 10791 10791 10790 10788 10787 10787
10461 10470 10479 10486 10493 10500 10507 10514 10522 10530 10537 10544 10551 10558 10565 10572 10579 10587 10594 10600 10607 10614 10620 10627 10634 10638 10642 10648 10654 10658 10662 10667 10672 10677 10681 10684 10688 10691 10695 10698 10701 10706 10711 10715 10718 10721 10723 10726 10729 10732 10735 10738 10741 10743 10746 10748 10751 10754 10757 10759 10762 10763 10764 10766 10767 10768 10769 10771 10775 10778 10779 10778 10778 10780 10781 10780 10780 10781 10782 10784 10786 10787 10787 10785 10782 10782 10783
10452 10461 10470 10477 10485 10491 10498 10506 10514 10522 10529 10535 10543 10551 10559 10566 10574 10581 10587 10594 10601 10608 10615 10622 10627 10632 10637 10643 10648 10652 10656 10660 10665 10670 10674 10678 10683 10687 10690 10693 10697 10702 10706 10710 10714 10717 10720 10723 10725 10728 10732 10735 10736 10739 10742 10744 10745 10749 10752 10754 10757 10759 10759 10760 10762 10764 10765 10767 10770 10773 10774 10773 10774 10775 10776 10775 10775 10777 10778 10779 10781 10782 10781 10779 10778 10778 10778
10444 10452 10460 10468 10475 10482 10490 10498 10507 10515 10521 10528 10537 10546 10554 10560 10567 10574 10581 10588 10595 10602 10609 10615 10621 10627 10632 10637 10642 10647 10652 10657 10662 10666 10670 10674 10678 10682 10685 10689 10694 10698 10702 10706 10710 10714 10717 10719 10721 10724 10727 10729 10731 10734 10737 10738 10740 10743 10747 10749 10751 10752 10752 10754 10756 10759 10761 10762 10764 10766 10768 10768 10769 10770 10771 10771 10771 10772 10773 10775 10776 10775 10774 10774 10774 10774 10773
10435 10443 10451 10459 10467 10475 10483 10492 10501 10508 10513 10521 10531 10540 10547 10553 10560 10568 10575 10583 10590 10597 10603 10609 10615 10622 10627 10632 10638 10643 10648 10653 10657 10661 10665 10669 10674 10678 10682 10686 10690 10695 10698 10702 10705 10709 10711 10714 10716 10717 10720 10723 10725 10727 10728 10730 10733 10737 10741 10743 10744 10745 10746 10748 10751 10753 10756 10758 10759 10760 10761 10763 10764 10766 10766 10767 10767 10768 10769 10771 10771 10769 10768 10769 10769 10769 10768
10428 10436 10444 10452 10460 10468 10477 10486 10494 10500 10507 10516 10526 10534 10540 10546 10554 10563 10571 10579 10585 10591 10597 10603 10610 10617 10622 10627 10633 10638 10643 10648 10652 10655 10660 10666 10671 10675 10679 10683 10686 10690 10693 10695 10699 10703 10705 10706 10707 10709 10712 10715 10718 10719 10720 10722 10726 10730 10734 10735 10735 10736 10739 10743 10746 10749 10752 10752 10752 10753 10755 10757 10760 10761 10762 10763 10764 10764 10764 10765 10766 10765 10764 10764 10765 10765 10764
10422 10430 10438 10446 10454 10462 10471 10480 10487 10494 10502 10512 10521 10528 10534 10542 10550 10558 10566 10573 10579 10585 10593 10600 10606 10612 10617 10622 10627 10632 10638 10643 10647 10652 10658 10663 10667 10670 10674 10678 10681 10684 10686 10689 10693 10697 10697 10698 10699 10703 10705 10708 10710 10712 10712 10714 10718 10723 10725 10726 10727 10729 10733 10737 10741 10745 10748 10747 10746 10747 10749 10752 10754 10756 10758 10759 10759 10758 10758 10760 10761 10761 10760 10760 10760 10760 10758
10416 10424 10432 10441 10449 10458 10466 10475 10482 10489 10497 10506 10515 10522 10529 10537 10545 10553 10561 10568 10575 10582 10589 10594 10600 10607 10613 10618 10623 10628 10633 10638 10643 10648 10654 10658 10661 10665 10669 10672 10675 10677 10680 10684 10688 10690 10690 10691 10694 10696 10698 10700 10703 10704 10704 10706 10711 10716 10718 10719 10720 10722 10726 10730 10734 10739 10742 10742 10741 10741 10743 10746 10748 10751 10753 10754 10753 10753 10753 10754 10755 10756 10756 10756 10755 10754 10752
10411 10419 10427 10436 10444 10453 10462 10470 10477 10485 10493 10502 10510 10516 10523 10531 10540 10549 10557 10564 10571 10578 10584 10589 10596 10603 10609 10613 10618 10623 10629 10635 10640 10646 10650 10654 10657 10661 10664 10667 10669 10673 10676 10679 10681 10682 10683 10685 10688 10690 10691 10693 10695 10697 10698 10701 10705 10710 10712 10713 10715 10717 10720 10724 10728 10732 10736 10737 10736 10736 10737 10740 10743 10746 10747 10748 10748 10748 10748 10749 10750 10751 10751 10751 10749 10748 10747
10407 10415 10423 10431 10440 10448 10456 10464 10471 10479 10487 10496 10504 10511 10519 10527 10536 10543 10552 10559 10566 10573 10579 10584 10591 10597 10603 10609 10614 10620 10625 10631 10637 10642 10646 10650 10653 10657 10660 10663 10666 10668 10671 10673 10675 10676 10678 10680 10681 10682 10684 10686 10689 10692 10695 10697 10699 10702 10705 10707 10709 10711 10715 10719 10723 10725 10728 10730 10732 10732 10733 10735 10738 10740 10741 10742 10743 10743 10744 10744 10745 10746 10746 10746 10744 10742 10742
10403 10410 10418 10427 10435 10443 10450 10458 10465 10473 10482 10491 10499 10507 10515 10523 10531 10539 10548 10556 10563 10568 10573 10579 10587 10594 10599 10604 10609 10614 10620 10627 10633 10637 10640 10644 10649 10652 10656 10659 10661 10663 10665 10667 10669 10671 10673 10674 10674 10674 10677 10681 10684 10687 10690 10691 10693 10695 10697 10700 10704 10707 10710 10714 10716 10717 10719 10723 10726 10727 10728 10730 10732 10735 10736 10737 10737 10738 10739 10740 10740 10740 10741 10741 10739 10738 10737
10398 10405 10414 10422 10430 10438 10446 10454 10461 10470 10479 10487 10496 10504 10512 10520 10529 10538 10546 10553 10558 10562 10568 10575 10582 10586 10590 10597 10604 10610 10616 10624 10630 10633 10636 10640 10645 10648 10651 10654 10656 10658 10660 10662 10664 10666 10667 10668 10667 10668 10672 10676 10679 10681 10684 10686 10688 10689 10690 10694 10698 10702 10706 10708 10709 10710 10712 10716 10719 10721 10723 10725 10728 10729 10730 10731 10731 10732 10733 10733 10733 10734 10736 10735 10734 10734 10732
10394 10402 10410 10418 10426 10434 10443 10451 10459 10468 10477 10486 10494 10503 10511 10520 10528 10536 10542 10547 10551 10556 10562 10568 10574 10580 10587 10595 10602 10608 10615 10622 10626 10629 10633 10637 10641 10644 10647 10650 10652 10654 10656 10658 10660 10661 10661 10661 10662 10665 10668 10671 10673 10676 10678 10681 10682 10683 10685 10688 10693 10697 10699 10701 10702 10704 10706 10710 10713 10715 10717 10720 10721 10722 10724 10725 10726 10726 10726 10727 10727 10728 10729 10728 10728 10727 10726
10393 10400 10407 10415 10423 10431 10440 10449 10458 10467 10476 10485 10493 10501 10509 10517 10525 10532 10538 10543 10546 10550 10555 10562 10569 10576 10584 10591 10598 10604 10612 10617 10621 10625 10629 10632 10636 10640 10643 10645 10647 10650 10652 10654 10655 10655 10655 10657 10660 10662 10664 10666 10668 10671 10674 10675 10677 10678 10680 10683 10687 10691 10693 10695 10696 10699 10702 10705 10707 10709 10710 10712 10714 10715 10717 10719 10720 10721 10721 10722 10722 10722 10722 10721 10720 10720 10719
10391 10398 10405 10413 10422 10430 10438 10447 10456 10465 10473 10481 10488 10496 10503 10510 10516 10522 10526 10530 10533 10538 10546 10555 10563 10571 10579 10587 10595 10602 10608 10613 10616 10621 10625 10628 10632 10636 10638 10640 10643 10646 10648 10649 10649 10650 10652 10655 10658 10659 10659 10661 10664 10667 10669 10670 10671 10673 10676 10679 10683 10685 10686 10688 10690 10693 10697 10700 10701 10703 10704 10705 10707 10708 10711 10713 10715 10716 10717 10717 10717 10717 10716 10714 10713 10713 10712
10390 10397 10404 10411 10419 10427 10436 10444 10452 10459 10466 10473 10480 10486 10493 10499 10503 10507 10511 10517 10524 10533 10544 10555 10563 10571 10579 10587 10594 10600 10605 10609 10613 10618 10622 10625 10629 10632 10634 10637 10640 10642 10643 10644 10645 10647 10650 10652 10653 10653 10655 10658 10661 10663 10664 10664 10666 10668 10671 10675 10677 10679 10680 10681 10684 10688 10692 10694 10696 10697 10698 10699 10701 10703 10705 10708 10709 10711 10712 10712 10712 10712 10711 10709 10708 10707 10705
10388 10395 10401 10408 10416 10423 10430 10436 10442 10448 10455 10461 10468 10474 10480 10487 10494 10501 10509 10518 10529 10539 10549 10558 10565 10572 10579 10587 10593 10598 10602 10606 10611 10615 10618 10621 10625 10628 10631 10634 10636 10637 10638 10641 10643 10646 10647 10647 10647 10648 10651 10654 10656 10657 10658 10660 10662 10664 10667 10669 10671 10673 10674 10677 10680 10684 10687 10688 10690 10691 10692 10694 10696 10698 10701 10703 10705 10706 10707 10707 10707 10707 10706 10705 10704 10702 10701
10387 10393 10400 10405 10411 10417 10422 10429 10435 10442 10449 10457 10464 10472 10479 10487 10495 10505 10514 10523 10532 10541 10549 10556 10563 10571 10578 10584 10590 10594 10598 10603 10608 10611 10614 10618 10622 10625 10627 10629 10631 10633 10636 10639 10641 10641 10641 10641 10642 10645 10648 10650 10651 10653 10654 10656 10659 10661 10662 10665 10667 10668 10670 10673 10677 10680 10682 10684 10684 10685 10687 10689 10692 10694 10697 10699 10700 10701 10702 10702 10702 10702 10701 10700 10699 10697 10696
10385 10391 10396 10401 10407 10414 10421 10428 10435 10443 10451 10460 10468 10477 10484 10492 10499 10507 10516 10525 10534 10542 10550 10556 10563 10570 10576 10582 10587 10591 10595 10599 10603 10607 10611 10615 10618 10620 10622 10625 10628 10632 10634 10635 10635 10635 10635 10638 10640 10642 10644 10646 10648 10649 10651 10654 10656 10657 10659 10661 10664 10666 10668 10671 10673 10675 10677 10680 10680 10680 10682 10685 10688 10690 10692 10694 10696 10697 10698 10698 10698 10697 10696 10695 10693 10691 10690
10383 10388 10393 10399 10405 10413 10421 10428 10437 10446 10454 10462 10469 10476 10484 10492 10501 10509 10518 10526 10535 10543 10550 10556 10563 10569 10574 10580 10585 10589 10591 10595 10599 10603 10607 10610 10614 10617 10620 10623 10626 10628 10628 10629 10630 10632 10634 10637 10639 10640 10641 10642 10644 10646 10648 10650 10652 10654 10656 10658 10660 10662 10665 10667 10668 10669 10671 10674 10675 10675 10678 10681 10684 10686 10688 10690 10692 10693 10694 10694 10693 10693 10691 10690 10688 10686 10684
10382 10387 10393 10400 10407 10414 10421 10428 10436 10444 10452 10460 10468 10477 10485 10494 10502 10510 10518 10526 10533 10541 10549 10556 10562 10568 10573 10579 10583 10586 10590 10594 10598 10601 10605 10608 10611 10614 10617 10619 10621 10623 10624 10626 10629 10631 10633 10635 10636 10637 10637 10639 10640 10642 10644 10647 10649 10650 10652 10654 10656 10658 10661 10663 10665 10665 10667 10669 10670 10672 10674 10677 10680 10683 10684 10686 10688 10689 10689 10689 10688 10688 10687 10685 10683 10681 10680
10382 10388 10395 10402 10409 10416 10423 10430 10437 10444 10452 10461 10470 10478 10486 10494 10502 10509 10516 10524 10531 10538 10546 10553 10560 10566 10571 10576 10581 10585 10589 10593 10597 10600 10602 10605 10607 10610 10613 10616 10619 10620 10622 10624 10627 10629 10630 10631 10632 10634 10635 10636 10638 10640 10642 10644 10645 10647 10649 10650 10652 10654 10656 10659 10660 10662 10664 10666 10667 10668 10671 10674 10677 10679 10681 10683 10684 10685 10685 10684 10684 10683 10682 10680 10679 10677 10675